Tracking 32577 objects as of 14-Dec-2025
HD Live streaming from Space Station
objects crossing your sky now

EXPLORER 22

Track EXPLORER 22 now!
10-day predictions
EXPLORER 22 is classified as:


NORAD ID: 899
Int'l Code: 1964-064A
Perigee: 873.0 km
Apogee: 1,047.9 km
Inclination: 79.7 °
Period: 104.1 minutes
Semi major axis: 7331 km
RCS: 1.5662 m2 (large)
Launch date: October 10, 1964
Source: United States (US)
Launch site: AIR FORCE WESTERN TEST RANGE (AFWTR)
Your satellite tracking list
Your tracking list is empty




NASA's NSSDC Master Catalog

Two Line Element Set (TLE):
1 00899U 64064A   25347.46681415  .00000370  00000-0  31627-3 0  9994
2 00899  79.6903 330.2310 0119305 324.1472  35.1711 13.82985717 79304
Source of the keplerian elements: AFSPC